Regional Weather Roundup
Issued by NWS Upton, NY

Current Version | Previous Version | Graphics & Text | Print | Product List | Glossary Off
Versions: 1 2 3 4 5 6 7 8 9 10 11 12 13 14 15 16 17 18 19 20 21 22 23 24 25 26 27

000
ASUS41 KOKX 290004
RWROKX

REGIONAL WEATHER ROUNDUP
NATIONAL WEATHER SERVICE NEW YORK NY
800 PM EDT THU APR 28 2016

NOTE: "FAIR" INDICATES FEW OR NO CLOUDS BELOW 12,000 FEET WITH NO
SIGNIFICANT WEATHER AND/OR OBSTRUCTIONS TO VISIBILITY.

NYZ071-072-176-178-NJZ106-104-290100-
NEW YORK CITY METRO AREA


CITY           SKY/WX    TMP DP  RH WIND       PRES   REMARKS
CENTRAL PARK   CLOUDY    50  30  46 MISG      30.06F
LAGUARDIA APRT LGT RAIN  50  31  48 S6        30.04S
KENNEDY INTL   LGT RAIN  49  36  61 SE6       30.05F
NEWARK/LIBERTY CLOUDY    48  36  63 SW5       30.04S
BRNX BOT. GARD   N/A     48  32  53 CALM      30.04F
TETERBORO      DRIZZLE   50  30  46 S7        30.03S
$$

NYZ177-179-078>081-290100-
LONG ISLAND NEW YORK

CITY           SKY/WX    TMP DP  RH WIND       PRES   REMARKS
FARMINGDALE    CLOUDY    49  32  52 S7        30.05S
ISLIP          CLOUDY    49  34  56 S6        30.05S
SHIRLEY        CLOUDY    49  35  58 SE5       30.06R
RIVERHEAD        N/A     48  36  61 S2        30.06S
WESTHAMPTON    PTCLDY    43  35  73 SE3       30.08R
EAST HAMPTON   FAIR      46  35  67 CALM      30.06R
MONTAUK POINT    N/A     47  36  65 VRB5      30.08R
$$

NYZ052-065-067-290100-
HUDSON VALLEY

CITY           SKY/WX    TMP DP  RH WIND       PRES   REMARKS
WHITE PLAINS   DRIZZLE   50  30  46 VRB5      30.03R
NEWBURGH       NOT AVBL
MONTGOMERY     CLOUDY    50  41  71 S6        30.00S
POUGHKEEPSIE   CLOUDY    55  39  54 S6        30.01R
ALBANY         CLOUDY    54  25  32 N3        30.02R
$$

NJZ001-105-106-008-010-013-015-019>022-104-290100-
NEW JERSEY

CITY           SKY/WX    TMP DP  RH WIND       PRES   REMARKS
NEWARK/LIBERTY CLOUDY    48  36  63 SW5       30.04S
TETERBORO      DRIZZLE   50  30  46 S7        30.03S
CALDWELL       CLOUDY    50  37  61 SW5       30.05R
MORRISTOWN     CLOUDY    48  39  71 SW5       30.05R
SOMERVILLE     CLOUDY    45  40  82 CALM      30.03S
SUSSEX         CLOUDY    48  41  76 CALM      30.02F
ANDOVER          N/A     49  37  63 SW3       30.02S
TRENTON        LGT RAIN  42  40  92 S5        30.05S FOG
MILLVILLE      CLOUDY    46  44  93 NE9       30.02S FOG
ATLANTIC CITY  CLOUDY    47  43  86 NE7       30.03R
WRIGHTSTOWN    LGT RAIN  42  41  97 E5        30.03S FOG
TOMS RIVER     CLOUDY    43  37  81 N3        30.06R
BELMAR         LGT RAIN  43  41  93 CALM      30.06R FOG
$$

PAZ047>061-062-071-290100-
EASTERN PENNSYLVANIA

CITY           SKY/WX    TMP DP  RH WIND       PRES   REMARKS
PHILADELPHIA   DRIZZLE   45  40  82 NE12      30.06R
ALLENTOWN      CLOUDY    46  42  86 CALM      30.03S
SCRANTON       CLOUDY    46  41  82 W3        30.00S
$$

CTZ002-004>006-009-010-012-RIZ004-006-007-MAZ004-011-015-290100-
SOUTHERN NEW ENGLAND
 IN CT

CITY           SKY/WX    TMP DP  RH WIND       PRES   REMARKS
BRADLEY INTL   CLOUDY    51  34  52 S12       30.02R
HARTFORD       CLOUDY    52  35  52 S9        30.04R
DANBURY        LGT RAIN  51  37  58 S5        30.04R
WTRBRY/OXFORD  LGT RAIN  48  36  61 S7        30.05R
BRIDGEPORT     CLOUDY    52  36  54 S7        30.05R
MERIDEN        CLOUDY    51  35  54 S8        30.04R
NEW HAVEN      CLOUDY    49  37  63 S7        30.05S
CHESTER        LGT RAIN  48  36  61 S6        30.05S
GROTON         MOCLDY    47  41  80 S8        30.06R
WILLIMANTIC    PTCLDY    50  33  52 S7        30.05R

 IN RI

CITY           SKY/WX    TMP DP  RH WIND       PRES   REMARKS
PROVIDENCE     CLOUDY    47  34  60 S12       30.07R
BLOCK ISLAND   CLOUDY    46  34  62 SE7       30.08R
WESTERLY       CLOUDY    47  35  63 S6        30.08R

 IN MA

CITY           SKY/WX    TMP DP  RH WIND       PRES   REMARKS
BOSTON         CLOUDY    49  31  49 S17       30.05R
WORCESTER      CLOUDY    47  28  47 S12       30.01R
WESTFIELD      CLOUDY    52  32  46 S9        30.01R
PROVINCETOWN   CLOUDY    45  32  60 S8        30.09R
NANTUCKET      CLOUDY    46  34  62 SE12      30.08R
$$

ANZ330-335-338-340-345-350-353-355-290100-
COASTAL MARINE OBSERVATIONS


STATION/POSITION TIME  SKY/WX   TEMP    WIND        PRES    VSBY  WAVE
                                AIR SEA DIR/SP/G                  HT/PER
                 (UTC)          (F)     (DEG/KT/KT) (MB)    (MI)  (FT/S)
NY HARB ENTRANCE 2250            48 51  140/  6/  8 1017.1          3/ 5
20S FIRE ISLAND  2250            48 49  120/  8/ 12 1016.8          3/ 5
GREAT SOUTH BAY  2300            49 58  190/  6/  8   N/A
23 SSW MONTAUK P 2350            47 47  130/  8/ 10 1017.7          3/ 4
15 E BARNEGAT LI 2322               51                N/A           3/ 5
HUDSON CANYON    2250            49 49              1016.5          4/ 6
KINGS POINT      2300            50 54              1017.1
EXECUTION ROCKS  NOT AVBL
CENTRAL LI SOUND 2300            49     160/  8/ 10   N/A           1/ 2
EASTERN LI SOUND 2300            47 47  160/  8/ 10   N/A
ROBBINS REEF     2300            48                 1016.6
$$


>>>>>>>>>>>>>>>>>>>>>>>>>>>> KEY <<<<<<<<<<<<<<<<<<<<<<<<<<<
>                                                          <
>     SKY/WX - SKY CONDITION/PRESENT WEATHER               <
>     TMP    - TEMPERATURE IN FAHRENHEIT                   <
>     DP     - DEWPOINT IN FAHRENHEIT                      <
>     RH     - RELATIVE HUMIDITY IN PERCENT                <
>     WIND   - DIRECTION AND SPEED IN MPH                  <
>     PRES   - MEAN SEA LEVEL PRESSURE IN INCHES OF HG     <
>     WCI    - WIND CHILL INDEX                            <
>     VSB    - VISIBILITY IN MILES                         <
>     HX     - HEAT INDEX                                  <
>     TC     - TEMPERATURE IN CELSIUS                      <
>     VRB    - VARIABLE WIND DIRECTION                     <
>                                                          <
>>>>>>>>>>>>>>>>>>>>>>>>>>>> KEY <<<<<<<<<<<<<<<<<<<<<<<<<<<






USA.gov is the U.S. government's official web portal to all federal, state and local government web resources and services.